Location: Newark
(34.1333°N, 7.9667°W)
Time: 00:14:38
(UTC+00:00)

JUGNU - Pass Details

Date: 16 June 2023
Orbit: 835 x 862 km, 20.0° (Epoch: 28 September)

Event Time Altitude Azimuth Distance (km) Brightness Sun altitude
Rises 20:00:00 0° 234° (SW) 3,419 ? -3.5°
Reaches altitude 10° 20:03:19 10° 217° (SW) 2,481 ? -4.0°
Maximum altitude 20:07:21 19° 174° (S) 1,933 ? -4.7°
Drops below altitude 10° 20:11:21 10° 131° (SE) 2,473 ? -5.4°
Enters shadow 20:12:30 - 124° (SE) 2,767 ? -5.6°
